Regional Weather Roundup
Issued by NWS

Home | Current Version | Previous Version | Graphics & Text | Print | Product List | Glossary On
Versions: 1 2 3 4 5 6 7 8 9 10 11 12 13 14 15 16 17 18 19 20 21 22 23 24 25 26 27 28 29 30 31 32 33 34 35 36 37 38 39 40 41 42 43 44 45 46 47 48 49 50
000
ASUS45 KCYS 030810
RWRWY

WYOMING REGIONAL WEATHER ROUNDUP
NATIONAL WEATHER SERVICE CHEYENNE WY
200 AM MDT THU SEP 03 2015

NOTE:  "FAIR" INDICATES FEW OR NO CLOUDS BELOW 12,000 FEET
WITH NO SIGNIFICANT WEATHER AND/OR OBSTRUCTIONS TO VISIBILITY.

WYZ001-030900-
YELLOWSTONE NATIONAL PARK

CITY           SKY/WX    TMP DP  RH WIND       PRES   REMARKS
LK YELLOWSTONE   N/A     43  35  73 NW3       30.09F
W YELLOWSTONE  NOT AVBL

$$
WYZ002>013-054>058-071-098>099-030900-
NORTHERN WYOMING

CITY           SKY/WX    TMP DP  RH WIND       PRES   REMARKS
JACKSON        FAIR      48  37  66 N5        29.99F
CODY           FAIR      70  36  28 SW12      29.87F
GREYBULL       FAIR      69  33  26 CALM      29.80S
WORLAND        FAIR      67  38  34 CALM      29.83R
SHERIDAN       FAIR      64  39  39 S5        29.78S
BUFFALO        FAIR      76  35  22 CALM      29.86S
GILLETTE       FAIR      76  34  21 SW17      29.82F
HULETT         FAIR      77  34  20 S13       29.84F
NEWCASTLE      FAIR      73  34  23 SE12      29.88S

$$
WYZ014>020-022>026-101>103-030900-
CENTRAL WYOMING

CITY           SKY/WX    TMP DP  RH WIND       PRES   REMARKS
BIG PINEY      FAIR      49  32  52 E5        30.09S
PINEDALE       FAIR      46  37  71 CALM      30.10F
DUBOIS         FAIR      52  30  43 NW13      30.07S
LANDER         FAIR      68  37  32 SW7       29.94F
RIVERTON       FAIR      69  38  32 SW10      29.95F
CASPER         FAIR      66  40  38 SW9       29.96F
DOUGLAS        FAIR      75  41  29 SW9       29.95F

$$
WYZ021-027>030-104>119-030900-
SOUTHERN WYOMING

CITY           SKY/WX    TMP DP  RH WIND       PRES   REMARKS
EVANSTON       FAIR      62  33  33 SW15      30.09F
KEMMERER       FAIR      55  34  44 CALM      30.10F
FORT BRIDGER   SUNNY     64  34  32 S9        30.11F
ROCK SPRINGS   FAIR      64  38  38 SW10      30.08F
DIXON          FAIR      60  42  52 NE9       30.14S
RAWLINS        FAIR      65  38  36 SW10      30.11F
SARATOGA       FAIR      59  43  55 S12       30.14F
LARAMIE        FAIR      51  41  68 S9        30.16F
CHEYENNE       FAIR      66  43  43 W12       30.07F
TORRINGTON     FAIR      64  48  56 SE6       29.90F
PINE BLUFFS    FAIR      59  41  51 CALM      30.01F

$$


USA.gov is the U.S. government's official web portal to all federal, state and local government web resources and services.